When you browse on this site, cookies collect data to enhance your experience and personalize the content and advertising you see.
Visit our Privacy Policy to learn more. By continuing to use the site, you agree to this use of cookies and data.
  • In Deutschland
  • Länderverzeichnis
  • Für 7 Tage
  • Wassertemperatur
  • Wetterkarte
  • Widgets
  • user-avatar
    Anmelden

    Stündliche Wetter Naftalan

    Heute, 22 August, Donnerstag

    Zeit Temperatur Niederschläge Wind Luftdruck Luftfeuchtigkeit
    00:00 +25°C° 0 mm 1 m/S 761 mmHg 68%
    01:00 +25°C° 0 mm 2 m/S 761 mmHg 66%
    02:00 +25°C° 0 mm 2 m/S 761 mmHg 64%
    03:00 +25°C° 0 mm 2 m/S 761 mmHg 61%
    04:00 +26°C° 0 mm 2 m/S 761 mmHg 61%
    05:00 +26°C° 0 mm 1 m/S 761 mmHg 62%
    06:00 +26°C° 0 mm 1 m/S 761 mmHg 62%
    07:00 +29°C° 0 mm 1 m/S 761 mmHg 53%
    08:00 +31°C° 0 mm 1 m/S 761 mmHg 44%
    09:00 +33°C° 0 mm 1 m/S 761 mmHg 36%
    10:00 +35°C° 0 mm 2 m/S 760 mmHg 33%
    11:00 +36°C° 0 mm 3 m/S 760 mmHg 30%
    12:00 +37°C° 0 mm 4 m/S 760 mmHg 27%
    13:00 +37°C° 0 mm 4 m/S 759 mmHg 29%
    14:00 +36°C° 0 mm 5 m/S 759 mmHg 30%
    15:00 +36°C° 0 mm 5 m/S 759 mmHg 31%
    16:00 +35°C° 0 mm 5 m/S 759 mmHg 37%
    17:00 +33°C° 0 mm 4 m/S 759 mmHg 43%
    18:00 +32°C° 0 mm 4 m/S 759 mmHg 49%
    19:00 +29°C° 0 mm 4 m/S 759 mmHg 54%
    20:00 +28°C° 0 mm 3 m/S 759 mmHg 60%
    21:00 +27°C° 0 mm 3 m/S 760 mmHg 65%
    22:00 +26°C° 0 mm 2 m/S 760 mmHg 68%
    23:00 +26°C° 0 mm 2 m/S 760 mmHg 70%

    Morgen, 23 August, Freitag

    Zeit Temperatur Niederschläge Wind Luftdruck Luftfeuchtigkeit
    00:00 +25°C° 0 mm 2 m/S 760 mmHg 72%
    01:00 +25°C° 0 mm 2 m/S 760 mmHg 71%
    02:00 +25°C° 0 mm 1 m/S 760 mmHg 70%
    03:00 +25°C° 0 mm 1 m/S 760 mmHg 68%
    04:00 +25°C° 0 mm 1 m/S 760 mmHg 66%
    05:00 +26°C° 0 mm 1 m/S 760 mmHg 64%
    06:00 +26°C° 0 mm 1 m/S 760 mmHg 62%
    07:00 +29°C° 0 mm 1 m/S 760 mmHg 54%
    08:00 +31°C° 0 mm 1 m/S 760 mmHg 45%
    09:00 +33°C° 0 mm 1 m/S 760 mmHg 36%
    10:00 +36°C° 0 mm 2 m/S 760 mmHg 33%
    11:00 +37°C° 0 mm 3 m/S 760 mmHg 29%
    12:00 +38°C° 0 mm 4 m/S 760 mmHg 26%
    13:00 +38°C° 0 mm 4 m/S 759 mmHg 27%
    14:00 +37°C° 0 mm 4 m/S 759 mmHg 29%
    15:00 +37°C° 0 mm 5 m/S 759 mmHg 30%
    16:00 +35°C° 0 mm 4 m/S 759 mmHg 37%
    17:00 +34°C° 0 mm 4 m/S 759 mmHg 44%
    18:00 +32°C° 0 mm 4 m/S 758 mmHg 50%
    19:00 +30°C° 0 mm 4 m/S 759 mmHg 56%
    20:00 +29°C° 0 mm 3 m/S 759 mmHg 62%
    21:00 +27°C° 0 mm 3 m/S 760 mmHg 67%
    22:00 +27°C° 0 mm 3 m/S 760 mmHg 70%
    23:00 +27°C° 0 mm 2 m/S 760 mmHg 73%

    übermorgen, 24 August, Samstag

    Zeit Temperatur Niederschläge Wind Luftdruck Luftfeuchtigkeit
    00:00 +27°C° 0 mm 2 m/S 759 mmHg 76%
    01:00 +26°C° 0 mm 2 m/S 759 mmHg 77%
    02:00 +25°C° 0 mm 2 m/S 759 mmHg 79%
    03:00 +25°C° 0 mm 1 m/S 759 mmHg 80%
    04:00 +25°C° 0 mm 2 m/S 759 mmHg 77%
    05:00 +26°C° 0 mm 2 m/S 759 mmHg 74%
    06:00 +26°C° 0 mm 2 m/S 760 mmHg 71%
    07:00 +29°C° 0 mm 1 m/S 760 mmHg 61%
    08:00 +31°C° 0 mm 1 m/S 760 mmHg 51%
    09:00 +34°C° 0 mm 1 m/S 760 mmHg 40%
    10:00 +36°C° 0 mm 2 m/S 760 mmHg 36%
    11:00 +37°C° 0 mm 3 m/S 759 mmHg 33%
    12:00 +38°C° 0 mm 4 m/S 759 mmHg 29%
    13:00 +39°C° 0 mm 5 m/S 759 mmHg 32%
    14:00 +37°C° 0 mm 5 m/S 759 mmHg 34%
    15:00 +38°C° 0 mm 6 m/S 759 mmHg 37%
    16:00 +35°C° 0 mm 6 m/S 759 mmHg 44%
    17:00 +33°C° 0 mm 5 m/S 759 mmHg 52%
    18:00 +32°C° 0 mm 4 m/S 759 mmHg 60%
    19:00 +30°C° 0 mm 4 m/S 759 mmHg 62%
    20:00 +29°C° 0 mm 4 m/S 760 mmHg 64%
    21:00 +28°C° 0 mm 3 m/S 760 mmHg 66%
    22:00 +28°C° 0 mm 3 m/S 760 mmHg 66%
    23:00 +27°C° 0 mm 2 m/S 760 mmHg 65%

    25 August, Sonntag

    Zeit Temperatur Niederschläge Wind Luftdruck Luftfeuchtigkeit
    00:00 +27°C° 0 mm 2 m/S 760 mmHg 65%
    01:00 +26°C° 0 mm 2 m/S 760 mmHg 65%
    02:00 +26°C° 0 mm 2 m/S 760 mmHg 65%
    03:00 +25°C° 0 mm 2 m/S 760 mmHg 65%
    04:00 +26°C° 0 mm 3 m/S 760 mmHg 64%
    05:00 +26°C° 0 mm 3 m/S 760 mmHg 62%
    06:00 +26°C° 0 mm 3 m/S 761 mmHg 60%
    07:00 +29°C° 0 mm 3 m/S 761 mmHg 53%
    08:00 +31°C° 0 mm 3 m/S 761 mmHg 46%
    09:00 +35°C° 0 mm 2 m/S 761 mmHg 39%
    10:00 +36°C° 0 mm 3 m/S 761 mmHg 36%
    11:00 +37°C° 0 mm 4 m/S 761 mmHg 33%
    12:00 +38°C° 0 mm 4 m/S 760 mmHg 30%
    13:00 +37°C° 0 mm 5 m/S 760 mmHg 32%
    14:00 +38°C° 0 mm 6 m/S 760 mmHg 34%
    15:00 +36°C° 0 mm 7 m/S 760 mmHg 36%
    16:00 +34°C° 0 mm 6 m/S 760 mmHg 41%
    17:00 +33°C° 0 mm 5 m/S 760 mmHg 47%
    18:00 +30°C° 0 mm 4 m/S 760 mmHg 52%
    19:00 +29°C° 0 mm 4 m/S 760 mmHg 57%
    20:00 +28°C° 0 mm 3 m/S 760 mmHg 62%
    21:00 +27°C° 0 mm 3 m/S 760 mmHg 67%
    22:00 +27°C° 0 mm 3 m/S 760 mmHg 66%
    23:00 +26°C° 0 mm 2 m/S 760 mmHg 66%

    26 August, Montag

    Zeit Temperatur Niederschläge Wind Luftdruck Luftfeuchtigkeit
    00:00 +26°C° 0 mm 2 m/S 760 mmHg 65%
    01:00 +26°C° 0 mm 2 m/S 760 mmHg 63%
    02:00 +26°C° 0 mm 2 m/S 760 mmHg 61%
    03:00 +26°C° 0 mm 2 m/S 760 mmHg 59%
    04:00 +26°C° 0 mm 2 m/S 760 mmHg 60%
    05:00 +26°C° 0 mm 1 m/S 760 mmHg 61%
    06:00 +26°C° 0 mm 1 m/S 760 mmHg 62%
    07:00 +28°C° 0 mm 1 m/S 761 mmHg 53%
    08:00 +30°C° 0 mm 2 m/S 761 mmHg 44%
    09:00 +32°C° 0 mm 2 m/S 761 mmHg 35%
    10:00 +34°C° 0 mm 2 m/S 761 mmHg 32%
    11:00 +35°C° 0 mm 3 m/S 761 mmHg 29%
    12:00 +36°C° 0 mm 4 m/S 760 mmHg 26%
    13:00 +36°C° 0 mm 4 m/S 760 mmHg 26%
    14:00 +36°C° 0 mm 5 m/S 760 mmHg 27%
    15:00 +35°C° 0 mm 6 m/S 760 mmHg 27%
    16:00 +34°C° 0 mm 5 m/S 760 mmHg 34%
    17:00 +32°C° 0 mm 4 m/S 760 mmHg 42%
    18:00 +30°C° 0 mm 4 m/S 760 mmHg 49%
    19:00 +28°C° 0 mm 3 m/S 761 mmHg 55%
    20:00 +27°C° 0 mm 2 m/S 762 mmHg 61%
    21:00 +25°C° 0 mm 1 m/S 762 mmHg 67%
    22:00 +25°C° 0 mm 1 m/S 762 mmHg 66%
    23:00 +25°C° 0 mm 1 m/S 762 mmHg 66%

    27 August, Dienstag

    Zeit Temperatur Niederschläge Wind Luftdruck Luftfeuchtigkeit
    00:00 +25°C° 0 mm 1 m/S 762 mmHg 65%
    01:00 +25°C° 0 mm 1 m/S 762 mmHg 67%
    02:00 +24°C° 0 mm 1 m/S 762 mmHg 69%
    03:00 +23°C° 0 mm 1 m/S 762 mmHg 71%
    04:00 +24°C° 0 mm 1 m/S 762 mmHg 66%
    05:00 +25°C° 0 mm 2 m/S 763 mmHg 61%
    06:00 +25°C° 0 mm 2 m/S 763 mmHg 56%
    07:00 +27°C° 0 mm 3 m/S 763 mmHg 50%
    08:00 +30°C° 0 mm 3 m/S 763 mmHg 44%
    09:00 +33°C° 0 mm 4 m/S 763 mmHg 38%
    10:00 +34°C° 0 mm 5 m/S 763 mmHg 36%
    11:00 +35°C° 0 mm 5 m/S 763 mmHg 35%
    12:00 +35°C° 0 mm 6 m/S 763 mmHg 33%
    13:00 +35°C° 0.1 mm 7 m/S 763 mmHg 33%
    14:00 +35°C° 0.1 mm 8 m/S 763 mmHg 34%
    15:00 +34°C° 0.1 mm 9 m/S 762 mmHg 34%
    16:00 +33°C° 0.1 mm 8 m/S 763 mmHg 39%
    17:00 +32°C° 0.1 mm 7 m/S 763 mmHg 44%
    18:00 +29°C° 0.1 mm 6 m/S 763 mmHg 49%
    19:00 +29°C° 0 mm 6 m/S 764 mmHg 52%
    20:00 +28°C° 0 mm 6 m/S 764 mmHg 55%
    21:00 +27°C° 0 mm 6 m/S 765 mmHg 58%
    22:00 +27°C° 0 mm 6 m/S 765 mmHg 58%
    23:00 +26°C° 0 mm 6 m/S 765 mmHg 59%
    Mehr zeigen